User: anonymous   Login
Location: ??
(35.5990°N, 139.7298°E)
Time: 15:55:08
(UTC+00:00)
Language:

USA 245 - Orbit

View from above orbital plane
View from above orbital plane
View from above satellite
View from above satellite

Ground track
Ground track

The orbit data is extracted from the following two-line orbital elements,

1 39232U 13043A   20223.86439074 0.00004200  00000-0  46750-4 0    05
2 39232  97.9330 284.5312 0527190 220.3627 139.6371 14.76472691    00
Epoch (UTC): 10 August 2020 20:44:43
Eccentricity: 0.0527190
inclination: 97.9330°
perigee height: 270 km
apogee height: 1010 km
right ascension of ascending node: 284.5312°
argument of perigee: 220.3627°
revolutions per day: 14.76472691
mean anomaly at epoch: 139.6371°
orbit number at epoch: 0

The dashed part of the orbit path shows where the satellite is in the earth's shadow,  

DLR